Location: Holcomb Observatory and Planetarium
(39.8415°N, 86.1714°W)
Time: 04:36:08
(UTC-05:00)

Hubble Space Telescope - Visible Passes

Search period start: 16 January 2018 00:00
Search period end: 26 January 2018 00:00
Orbit: 537 x 541 km, 28.5° (Epoch: 14 January)

Date Brightness Start Highest point End Pass type
(mag) Time Alt. Az. Time Alt. Az. Time Alt. Az.
24 Jan 3.4 20:23:57 10° SSW 20:24:43 13° SSW 20:24:43 13° SSW visible
25 Jan 3.4 18:35:01 10° S 18:35:39 10° SSE 18:36:19 10° SSE visible
25 Jan 3.1 20:13:28 10° SW 20:15:07 15° SSW 20:15:07 15° SSW visible
